{"data":{"norad_id":61981,"intl_designator":"2024-210Y","name":"STARLINK-32522","alt_names":[],"object_type":"PAYLOAD","status":"ACTIVE","operator":null,"country":"US","launch_date":"2024-11-14","launch_site_code":"AFETR","launch_vehicle":null,"mission":null,"orbit_class":"UNKNOWN","rcs_meters":null,"size_class":null,"mass_kg":null,"dimensions":null,"purposes":["comms"],"wikipedia_slug":null,"has_3d_model":false,"image_url":null,"decayed_at":null,"tle_current":{"epoch":"2026-09-21T09:51:14.832576Z","epoch_age_seconds":106829,"freshness":"FRESH","line1":"1 61981U 24210Y   26264.41058834  .00007786  00000+0  29207-3 0  9997","line2":"2 61981  43.0018 154.4352 0001200 283.2091  76.8627 15.27592223104813","mean_motion":15.27592223,"eccentricity":0.00012,"inclination_deg":43.0018,"raan_deg":154.4352,"arg_perigee_deg":283.2091,"mean_anomaly_deg":76.8627,"bstar":0.00029207,"rev_number":10481,"period_min":94.265994440062,"perigee_km":482.18915828495,"apogee_km":483.83583416404,"semimajor_km":6861.1494962245,"source":"CELESTRAK","updated_at":"2026-09-22T09:00:49.481643Z"}}}